Time,TemperatureF,DewpointF,PressureIn,WindDirection,WindDirectionDegrees,WindSpeedMPH,WindSpeedGustMPH,Humidity,HourlyPrecipIn,Conditions,Clouds,dailyrainin,SoftwareType,DateUTC
2013-03-09 00:01:00,29.4,22.1,30.42,SE,138,3.0,5.0,74,0.00,,---,0.00,VWS V14.01,2013-03-09 05:01:00,
2013-03-09 00:16:00,29.2,21.6,30.42,SE,138,3.0,5.0,73,0.00,,---,0.00,VWS V14.01,2013-03-09 05:16:00,
2013-03-09 00:31:00,29.1,21.5,30.41,SE,131,3.0,6.0,73,0.00,,---,0.00,VWS V14.01,2013-03-09 05:31:00,
2013-03-09 00:46:00,28.9,21.4,30.41,SE,130,2.0,4.0,73,0.00,,---,0.00,VWS V14.01,2013-03-09 05:46:00,
2013-03-09 01:01:00,28.9,21.4,30.41,SSE,148,3.0,6.0,73,0.00,,---,0.00,VWS V14.01,2013-03-09 06:01:00,
2013-03-09 01:16:00,28.8,21.6,30.40,SE,134,2.0,5.0,74,0.00,,---,0.00,VWS V14.01,2013-03-09 06:16:00,
2013-03-09 01:31:00,28.8,21.6,30.39,SE,126,1.0,6.0,74,0.00,,---,0.00,VWS V14.01,2013-03-09 06:31:00,
2013-03-09 01:46:00,28.7,21.5,30.39,SE,133,5.0,5.0,74,0.00,,---,0.00,VWS V14.01,2013-03-09 06:46:00,
2013-03-09 02:01:00,28.9,21.7,30.39,SSE,153,4.0,7.0,74,0.00,,---,0.00,VWS V14.01,2013-03-09 07:01:00,
2013-03-09 02:16:00,29.1,21.9,30.38,SE,144,4.0,7.0,74,0.00,,---,0.00,VWS V14.01,2013-03-09 07:16:00,
2013-03-09 02:31:00,29.2,22.3,30.38,SSE,152,2.0,9.0,75,0.00,,---,0.00,VWS V14.01,2013-03-09 07:31:00,
2013-03-09 02:46:00,29.1,22.2,30.37,SE,136,2.0,8.0,75,0.00,,---,0.00,VWS V14.01,2013-03-09 07:46:00,
2013-03-09 03:01:00,29.3,22.4,30.36,SE,139,5.0,9.0,75,0.00,,---,0.00,VWS V14.01,2013-03-09 08:01:00,
2013-03-09 03:16:00,29.2,22.6,30.35,SE,145,5.0,8.0,76,0.00,,---,0.00,VWS V14.01,2013-03-09 08:16:00,
2013-03-09 03:31:00,29.3,22.7,30.35,South,170,3.0,9.0,76,0.00,,---,0.00,VWS V14.01,2013-03-09 08:31:00,
2013-03-09 03:46:00,29.5,22.9,30.35,SE,136,4.0,7.0,76,0.00,,---,0.00,VWS V14.01,2013-03-09 08:46:00,
2013-03-09 04:01:00,29.6,23.3,30.34,SE,138,2.0,13.0,77,0.00,,---,0.00,VWS V14.01,2013-03-09 09:01:00,
2013-03-09 04:16:00,29.9,23.6,30.33,SE,133,4.0,10.0,77,0.00,,---,0.00,VWS V14.01,2013-03-09 09:16:00,
2013-03-09 04:31:00,29.9,23.6,30.33,SSE,159,1.0,11.0,77,0.00,,---,0.00,VWS V14.01,2013-03-09 09:31:00,
2013-03-09 04:46:00,30.1,23.8,30.34,SSE,165,2.0,11.0,77,0.00,,---,0.00,VWS V14.01,2013-03-09 09:46:00,
2013-03-09 05:01:00,30.3,24.0,30.33,SE,144,6.0,13.0,77,0.00,,---,0.00,VWS V14.01,2013-03-09 10:01:00,
2013-03-09 05:16:00,30.5,24.5,30.33,SSE,150,9.0,11.0,78,0.00,,---,0.00,VWS V14.01,2013-03-09 10:16:00,
2013-03-09 05:31:00,30.7,24.7,30.32,ESE,104,9.0,14.0,78,0.00,,---,0.00,VWS V14.01,2013-03-09 10:31:00,
2013-03-09 05:46:00,30.7,24.7,30.33,ESE,120,4.0,13.0,78,0.00,,---,0.00,VWS V14.01,2013-03-09 10:46:00,
2013-03-09 06:01:00,30.7,25.0,30.32,SE,135,3.0,8.0,79,0.00,,---,0.00,VWS V14.01,2013-03-09 11:01:00,
2013-03-09 06:16:00,30.8,25.1,30.32,SE,128,4.0,9.0,79,0.00,,---,0.00,VWS V14.01,2013-03-09 11:16:00,
2013-03-09 06:31:00,30.7,25.3,30.31,ESE,102,8.0,12.0,80,0.00,,---,0.00,VWS V14.01,2013-03-09 11:31:00,
2013-03-09 06:46:00,31.1,25.7,30.31,SE,137,4.0,12.0,80,0.00,,---,0.00,VWS V14.01,2013-03-09 11:46:00,
2013-03-09 07:01:00,31.3,25.9,30.31,ESE,113,7.0,12.0,80,0.00,,---,0.00,VWS V14.01,2013-03-09 12:01:00,
2013-03-09 07:16:00,31.5,26.0,30.32,South,185,3.0,11.0,80,0.00,,---,0.00,VWS V14.01,2013-03-09 12:16:00,
2013-03-09 07:31:00,31.5,26.0,30.31,SE,135,6.0,11.0,80,0.00,,---,0.00,VWS V14.01,2013-03-09 12:31:00,
2013-03-09 07:46:00,31.8,26.4,30.33,SE,142,4.0,11.0,80,0.00,,---,0.00,VWS V14.01,2013-03-09 12:46:00,
2013-03-09 08:01:00,32.0,26.5,30.33,SE,130,2.0,12.0,80,0.00,,---,0.00,VWS V14.01,2013-03-09 13:01:00,
2013-03-09 08:16:00,32.0,26.5,30.32,SE,132,6.0,11.0,80,0.00,,---,0.00,VWS V14.01,2013-03-09 13:16:00,
2013-03-09 08:31:00,32.0,26.5,30.32,ESE,116,2.0,12.0,80,0.00,,---,0.00,VWS V14.01,2013-03-09 13:31:00,
2013-03-09 08:46:00,32.4,26.9,30.33,SSE,149,2.0,7.0,80,0.00,,---,0.00,VWS V14.01,2013-03-09 13:46:00,
2013-03-09 09:01:00,32.8,27.0,30.32,SE,142,5.0,8.0,79,0.00,,---,0.00,VWS V14.01,2013-03-09 14:01:00,
2013-03-09 09:16:00,33.4,27.6,30.31,SE,135,5.0,8.0,79,0.00,,---,0.00,VWS V14.01,2013-03-09 14:16:00,
2013-03-09 09:31:00,34.1,27.7,30.31,SE,134,6.0,10.0,77,0.00,,---,0.00,VWS V14.01,2013-03-09 14:31:00,
2013-03-09 09:46:00,34.9,28.1,30.30,SSE,147,2.0,10.0,76,0.00,,---,0.00,VWS V14.01,2013-03-09 14:46:00,
2013-03-09 10:01:00,35.3,28.2,30.30,SE,132,5.0,13.0,75,0.00,,---,0.00,VWS V14.01,2013-03-09 15:01:00,
2013-03-09 10:16:00,35.5,28.0,30.30,SSE,154,5.0,12.0,74,0.00,,---,0.00,VWS V14.01,2013-03-09 15:16:00,
2013-03-09 10:31:00,35.6,28.1,30.29,South,170,2.0,10.0,74,0.00,,---,0.00,VWS V14.01,2013-03-09 15:31:00,
2013-03-09 10:46:00,35.8,28.7,30.30,South,178,2.0,8.0,75,0.00,,---,0.00,VWS V14.01,2013-03-09 15:46:00,
2013-03-09 11:01:00,36.1,28.3,30.29,SSE,168,3.0,11.0,73,0.00,,---,0.00,VWS V14.01,2013-03-09 16:01:00,
2013-03-09 11:16:00,36.5,28.7,30.29,SE,140,7.0,13.0,73,0.00,,---,0.00,VWS V14.01,2013-03-09 16:16:00,
2013-03-09 11:31:00,37.0,29.2,30.27,SE,144,8.0,13.0,73,0.00,,---,0.00,VWS V14.01,2013-03-09 16:31:00,
2013-03-09 11:46:00,37.4,29.2,30.25,SSE,164,6.0,14.0,72,0.00,,---,0.00,VWS V14.01,2013-03-09 16:46:00,
2013-03-09 12:01:00,37.8,29.3,30.23,East,91,8.0,15.0,71,0.00,,---,0.00,VWS V14.01,2013-03-09 17:01:00,
2013-03-09 12:16:00,38.4,29.5,30.23,SE,124,4.0,16.0,70,0.00,,---,0.00,VWS V14.01,2013-03-09 17:16:00,
2013-03-09 12:31:00,38.7,29.4,30.22,SE,142,12.0,16.0,69,0.00,,---,0.00,VWS V14.01,2013-03-09 17:31:00,
2013-03-09 12:46:00,39.0,29.4,30.21,SE,142,5.0,15.0,68,0.00,,---,0.00,VWS V14.01,2013-03-09 17:46:00,
2013-03-09 13:01:00,39.2,29.5,30.19,SE,140,6.0,17.0,68,0.00,,---,0.00,VWS V14.01,2013-03-09 18:01:00,
2013-03-09 13:16:00,39.7,29.7,30.19,SE,133,4.0,13.0,67,0.00,,---,0.00,VWS V14.01,2013-03-09 18:16:00,
2013-03-09 13:31:00,40.6,29.4,30.19,SE,125,2.0,16.0,64,0.00,,---,0.00,VWS V14.01,2013-03-09 18:31:00,
2013-03-09 13:46:00,40.9,29.3,30.18,ESE,120,8.0,17.0,63,0.00,,---,0.00,VWS V14.01,2013-03-09 18:46:00,
2013-03-09 14:01:00,41.1,29.5,30.17,SE,138,13.0,15.0,63,0.00,,---,0.00,VWS V14.01,2013-03-09 19:01:00,
2013-03-09 14:16:00,41.0,29.4,30.16,South,184,2.0,18.0,63,0.00,,---,0.00,VWS V14.01,2013-03-09 19:16:00,
2013-03-09 14:31:00,41.4,29.8,30.15,East,93,9.0,12.0,63,0.00,,---,0.00,VWS V14.01,2013-03-09 19:31:00,
2013-03-09 14:46:00,41.4,30.1,30.14,SSE,154,7.0,16.0,64,0.00,,---,0.00,VWS V14.01,2013-03-09 19:46:00,
2013-03-09 15:01:00,41.0,29.8,30.13,SSE,148,4.0,16.0,64,0.00,,---,0.00,VWS V14.01,2013-03-09 20:01:00,
2013-03-09 15:16:00,40.6,29.8,30.12,SE,138,10.0,12.0,65,0.00,,---,0.00,VWS V14.01,2013-03-09 20:16:00,
2013-03-09 15:31:00,40.3,29.9,30.11,ESE,104,9.0,20.0,66,0.00,,---,0.00,VWS V14.01,2013-03-09 20:31:00,
2013-03-09 15:46:00,40.1,30.0,30.11,SE,140,7.0,16.0,67,0.00,,---,0.00,VWS V14.01,2013-03-09 20:46:00,
2013-03-09 16:01:00,39.9,30.2,30.10,SE,133,8.0,17.0,68,0.00,,---,0.00,VWS V14.01,2013-03-09 21:01:00,
2013-03-09 16:16:00,40.0,30.3,30.10,SE,144,5.0,16.0,68,0.00,,---,0.00,VWS V14.01,2013-03-09 21:16:00,
2013-03-09 16:31:00,39.9,30.6,30.09,SSE,150,11.0,15.0,69,0.00,,---,0.00,VWS V14.01,2013-03-09 21:31:00,
2013-03-09 16:46:00,39.7,30.7,30.08,SE,144,13.0,17.0,70,0.00,,---,0.00,VWS V14.01,2013-03-09 21:46:00,
2013-03-09 17:01:00,39.6,31.0,30.07,SE,125,5.0,17.0,71,0.00,,---,0.00,VWS V14.01,2013-03-09 22:01:00,
2013-03-09 17:16:00,39.5,31.2,30.07,SE,142,10.0,17.0,72,0.00,,---,0.00,VWS V14.01,2013-03-09 22:16:00,
2013-03-09 17:31:00,39.3,31.0,30.06,South,191,2.0,16.0,72,0.00,,---,0.00,VWS V14.01,2013-03-09 22:31:00,
2013-03-09 17:46:00,39.2,31.0,30.07,SE,132,8.0,14.0,72,0.00,,---,0.00,VWS V14.01,2013-03-09 22:46:00,
2013-03-09 18:01:00,39.1,31.5,30.07,SE,133,5.0,17.0,74,0.00,,---,0.00,VWS V14.01,2013-03-09 23:01:00,
2013-03-09 18:16:00,38.7,31.5,30.06,ESE,123,7.0,20.0,75,0.00,,---,0.00,VWS V14.01,2013-03-09 23:16:00,
2013-03-09 18:31:00,38.6,31.7,30.06,SE,136,4.0,14.0,76,0.00,,---,0.00,VWS V14.01,2013-03-09 23:31:00,
2013-03-09 18:46:00,38.6,31.7,30.05,ESE,111,8.0,17.0,76,0.00,,---,0.00,VWS V14.01,2013-03-09 23:46:00,
2013-03-09 19:01:00,38.7,31.8,30.04,ESE,115,10.0,16.0,76,0.00,,---,0.00,VWS V14.01,2013-03-10 00:01:00,
2013-03-09 19:16:00,38.7,32.1,30.04,SE,132,7.0,14.0,77,0.00,,---,0.00,VWS V14.01,2013-03-10 00:16:00,
2013-03-09 19:31:00,38.8,32.2,30.04,SE,145,5.0,17.0,77,0.00,,---,0.00,VWS V14.01,2013-03-10 00:31:00,
2013-03-09 19:46:00,38.7,32.4,30.04,SSE,148,12.0,15.0,78,0.00,,---,0.00,VWS V14.01,2013-03-10 00:46:00,
2013-03-09 20:01:00,38.8,32.5,30.03,SE,132,5.0,19.0,78,0.00,,---,0.00,VWS V14.01,2013-03-10 01:01:00,
2013-03-09 20:16:00,38.8,32.5,30.03,SE,137,6.0,14.0,78,0.00,,---,0.00,VWS V14.01,2013-03-10 01:16:00,
2013-03-09 20:31:00,39.3,32.7,30.01,ESE,122,5.0,17.0,77,0.00,,---,0.00,VWS V14.01,2013-03-10 01:31:00,
2013-03-09 20:46:00,40.0,33.4,30.01,SE,138,6.0,17.0,77,0.00,,---,0.00,VWS V14.01,2013-03-10 01:46:00,
2013-03-09 21:01:00,40.0,33.1,30.01,SSE,159,2.0,15.0,76,0.00,,---,0.00,VWS V14.01,2013-03-10 02:01:00,
2013-03-09 21:16:00,39.9,33.3,30.00,SE,136,5.0,13.0,77,0.00,,---,0.00,VWS V14.01,2013-03-10 02:16:00,
2013-03-09 21:31:00,40.5,33.5,29.99,SE,136,13.0,14.0,76,0.00,,---,0.00,VWS V14.01,2013-03-10 02:31:00,
2013-03-09 21:46:00,41.3,33.7,29.99,SE,126,15.0,15.0,74,0.00,,---,0.00,VWS V14.01,2013-03-10 02:46:00,
2013-03-09 22:01:00,41.8,33.8,29.99,SSE,150,5.0,15.0,73,0.00,,---,0.00,VWS V14.01,2013-03-10 03:01:00,
2013-03-09 22:16:00,42.4,34.0,30.00,SSE,157,7.0,13.0,72,0.00,,---,0.00,VWS V14.01,2013-03-10 03:16:00,
2013-03-09 22:31:00,42.0,34.0,30.00,SSE,150,4.0,11.0,73,0.00,,---,0.00,VWS V14.01,2013-03-10 03:31:00,
2013-03-09 22:46:00,41.4,33.8,30.00,South,171,4.0,10.0,74,0.00,,---,0.00,VWS V14.01,2013-03-10 03:46:00,
2013-03-09 23:01:00,40.5,33.5,29.99,SE,146,3.0,8.0,76,0.00,,---,0.00,VWS V14.01,2013-03-10 04:01:00,
2013-03-09 23:16:00,40.2,33.6,29.99,East,93,7.0,8.0,77,0.00,,---,0.00,VWS V14.01,2013-03-10 04:16:00,
2013-03-09 23:31:00,40.0,33.4,29.98,ESE,121,1.0,7.0,77,0.00,,---,0.00,VWS V14.01,2013-03-10 04:31:00,
2013-03-09 23:46:00,39.7,33.4,29.98,ESE,117,4.0,6.0,78,0.00,,---,0.00,VWS V14.01,2013-03-10 04:46:00,